Regional Weather Roundup
Issued by NWS Austin/San Antonio, TX

Current Version | Previous Version | Text Only | Print | Product List | Glossary On
Versions: 1 2 3 4 5 6 7 8 9 10 11 12 13 14 15 16 17 18 19 20 21 22 23 24 25 26 27 28 29 30 31 32 33 34 35 36 37 38 39 40 41 42 43 44 45 46 47 48 49 50
000
ASUS44 KEWX 051502
RWREWX
SOUTH TEXAS REGIONAL WEATHER ROUNDUP
NATIONAL WEATHER SERVICE AUSTIN/SAN ANTONIO TX
1000 AM CDT SUN JUL 05 2020

NOTE: "FAIR" INDICATED FEW OR NO CLOUDS BELOW 12,000 FEET WITH NO
SIGNIFICANT WEATHER AND/OR OBSTRUCTIONS TO VISIBILITY.

* - THESE STATIONS ARE NOT NWS OR FAA STATIONS...AND ARE NOT SUBJECT
    TO NWS AND FAA QUALITY CONTROL.

TXZ171-172-183>190-051600-
TEXAS HILL COUNTRY AND EDWARDS PLATEAU

CITY           SKY/WX    TMP DP  RH WIND       PRES   REMARKS
JUNCTION       MOSUNNY   86  70  58 S7        29.94S HX  90
*LLANO         SUNNY     90  64  43 SW7       29.94S HX  91
BURNET         SUNNY     86  62  44 SW9       29.94R
*HORSESHOE BAY SUNNY     90  61  37 SW7       29.91S
*LAGO VISTA    SUNNY     86  65  50 SW9       29.93S
*KERRVILLE     SUNNY     85  62  45 S9        29.94F
*FREDERICKSBRG SUNNY     84  59  42 SW9       29.95S
*ROCKSPRINGS   MOSUNNY   84  64  51 S8        30.02R
*BOERNE        SUNNY     82  61  47 S10       29.94F
*CASTROVILLE   SUNNY     86  70  58 MISG      29.93S HX  91
HONDO          SUNNY     84  71  65 VRB6      29.91F
*UVALDE          N/A     82  71  68 S8        29.92F
DEL RIO        SUNNY     88  68  51 S13       29.88S HX  91
*LAUGHLIN AFB  NOT AVBL
*SPOFFORD      NOT AVBL
*EAGLE PASS    NOT AVBL
CARRIZO SPRGS  SUNNY     84  70  61 S3        29.88S
$$

TXZ173-191>194-202-209-217>225-228-051600-
CENTRAL AND SOUTH CENTRAL TEXAS

CITY           SKY/WX    TMP DP  RH WIND       PRES   REMARKS
GEORGETOWN     SUNNY     87  69  54 SW9       29.92R HX  91
*TAYLOR        SUNNY     84  71  65 S13       29.90S
AUSTIN/BERGSTM MOSUNNY   84  74  71 S10       29.90S HX  91
AUSTIN/MABRY   SUNNY     86  71  60 VRB6      29.91S HX  91
*PFLUGERVILLE  SUNNY     82  72  69 S13       29.91S
SAN MARCOS     MOSUNNY   85  74  69 S15       29.91F HX  92
NEW BRAUNFELS  SUNNY     86  71  60 SW9       29.90F HX  91
*RANDOLPH AFB  SUNNY     84  71  65 S9        29.91F
*SEGUIN        NOT AVBL
SAN ANTONIO    MOSUNNY   84  70  62 SW7       29.91F
STINSON FIELD  SUNNY     82  73  74 VRB6      29.89F
*KELLY FIELD   SUNNY     84  72  66 S7        29.89F HX  90
*PLEASANTON    MOSUNNY   84  75  73 S6        29.91F HX  92
*KENEDY        MOSUNNY   84  73  71 S9        29.92S HX  90
*LA GRANGE     MOSUNNY   84  75  74 SW8       29.89F HX  93
*GIDDINGS      MOSUNNY   83  73  72 SW9       29.91F
*GONZALES      CLOUDY    84  73  70 SW10      29.90F HX  90
$$

TXZ163>164-176>182-195>201-210>213-226-227-235-051600-
SOUTHEAST TEXAS

CITY           SKY/WX    TMP DP  RH WIND       PRES   REMARKS
COLLEGE STN    MOSUNNY   83  74  74 S7        29.90R
*BRYAN         MOSUNNY   82  75  78 SW5       29.91S
*CALDWELL      MOSUNNY   82  74  75 SW13G18   29.91S
*CROCKETT      NOT AVBL
*BRENHAM       MOSUNNY   83  75  77 SW10      29.91S HX  91
HUNTSVILLE     PTSUNNY   82  73  74 SW6       29.91S
CONROE         PTSUNNY   83  74  74 SW10      29.91F
HOUSTON BUSH   PTSUNNY   84  75  74 SW10      29.90F HX  92
HOUSTON HOBBY  PTSUNNY   85  76  74 SW10      29.90S HX  94
*HOUSTON SW AP PTSUNNY   81  78  91 SW7       29.91F
PEARLAND       PTSUNNY   85  74  69 W9        29.92S HX  92
HOUSTON HOOKS  CLOUDY    83  74  74 W8        29.90S
ELLINGTON FLD  NOT AVBL
SUGAR LAND     PTSUNNY   85  77  77 SW13      29.90F HX  95
*HOUSTON EXEC  MOSUNNY   82  77  83 SW14G22   29.92S HX  91
*CLEVELAND MUN CLOUDY    81  76  86 SW5       29.92S
*WHARTON       PTSUNNY   83  74  74 SW10G16   29.92F
*COLUMBUS      FAIR      82  74  79 SW8       29.92S
*EAGLE LAKE    CLOUDY    83  77  82 SW13G18   29.91  HX  91
$$

TXZ214>216-236>238-051600-
THE UPPER TEXAS COAST

CITY           SKY/WX    TMP DP  RH WIND       PRES   REMARKS
*ORANGE        MOSUNNY   85  76  75 W7        29.92S HX  95
PORT ARTHUR    MOSUNNY   86  77  74 SW12      29.90S HX  97
GALVESTON      MOSUNNY   88  77  69 SW18      29.91F HX 100
ANGLETON       MOSUNNY   84  75  74 SW9       29.92R HX  92
*BAY CITY      MOSUNNY   87  78  74 SW12      29.92S HX  99
PALACIOS       MOSUNNY   86  75  69 S13       29.92R HX  95
$$

TXZ229>234-239>247-051600-
TEXAS COASTAL BEND AND RIO GRANDE PLAINS

CITY           SKY/WX    TMP DP  RH WIND       PRES   REMARKS
VICTORIA       MOSUNNY   85  75  72 S13       29.92R HX  93
*BEEVILLE      PTSUNNY   85  78  80 S10       29.90F HX  96
ROCKPORT       PTSUNNY   85  75  72 S12G18    29.90S HX  93
*PORT ARANSAS  SUNNY     85  77  78 S17       29.93R HX  95
*PORT LAVACA   PTSUNNY   86  80  81 SW10      29.92S HX 100
*INGLESIDE     PTSUNNY   86  78  77 SW16      29.91R HX  99
CORPUS CHRISTI MOSUNNY   83  76  79 S16       29.90S HX  91
CORPUS NAS     MOSUNNY   83  78  85 S13G22    29.90S HX  93
*ROBSTOWN      PTSUNNY   82  79  90 S17       29.91S HX  93
ALICE          MOSUNNY   86  75  69 S14       29.89S HX  95
KINGSVILLE NAS MOSUNNY   87  76  69 S15       29.89F HX  97
COTULLA        SUNNY     85  74  69 S7        29.89R HX  92
LAREDO         SUNNY     86  74  67 S9        29.88S HX  94
$$

TXZ248>255-051600-
DEEP SOUTH TEXAS

CITY           SKY/WX    TMP DP  RH WIND       PRES   REMARKS
BROWNSVILLE    MOSUNNY   87  74  64 S22       29.90R HX  95
PORT ISABEL    MOSUNNY   87  75  67 S15       29.89S HX  96
HARLINGEN      LGT RAIN  87  75  67 S17G24    29.89S HX  96
*HEBBRONVILLE  SUNNY     83  72  70 S12       29.91S
MCALLEN        SUNNY     86  71  60 S14G22    29.88F HX  91
*WESLACO       SUNNY     86  72  63 S13G22    29.89S HX  92
FALFURRIAS     NOT AVBL
EDINBURG       SUNNY     85  71  63 S14G20    29.89S HX  90
*ZAPATA        SUNNY     87  74  64 S9        29.89S HX  96
$$

TXZ213>215-236>238-242>244-246-247-251-254-255-051600-
CMAN STATIONS

STATION/POSITION TIME  TEMP    WIND        PRES    WAVE
                       AIR SEA DIR/SP/G            HT/PER
                 (UTC) (F)     (DEG/KT/KT) (MB)    (FT/S)
SABINE PASS      1430   85 87  240/  6/ 11 1014.5
NORTH JETTY/GLS  1430   86 83  240/ 14/ 15 1011.6
EAGLE POINT      1430   84 87  240/  8/ 13 1012.1
MORGANS POINT    1430   83 87  250/ 12/ 15 1012.5
PORT O`CONNOR    1430   83 86  200/ 12/ 15 1012.9
PORT ARANSAS     1400   81 82  180/ 15/ 16 1012.3
MALAQUITE BEACH  1424   81     160/ 12/ 14   N/A
BAFFIN BAY       1424   82 85  160/ 16/ 20 1012.7
PORT ISABEL      1424   85 82  170/ 15/ 18 1014.4
$$



USA.gov is the U.S. government's official web portal to all federal, state and local government web resources and services.